Hourly Weather Roundup
Issued by NWS Central Illinois

Home | Current Version | Previous Version | Text Only | Print | Product List | Glossary On
Versions: 1 2 3 4 5 6 7 8 9 10 11 12 13 14 15 16 17 18 19 20 21 22 23 24 25 26 27 28 29 30 31 32 33 34 35 36 37 38 39 40 41 42 43 44 45 46 47 48 49 50
000
NZUS43 KILX 051510
HWRILX

AREA WEATHER ROUNDUP
NATIONAL WEATHER SERVICE, LINCOLN IL
1000 AM CDT TUE MAY 05 2015


CITY           SKY/WX    TMP DP  RH WIND       PRES   REMARKS
BLOOMINGTON    MOSUNNY   73  65  76 S14       30.18F
CHAMPAIGN      MOSUNNY   76  55  48 SW14      30.19F
DANVILLE       MOSUNNY   73  59  62 SW7       30.18S
DECATUR        MOSUNNY   74  57  55 SW13      30.19F
EFFINGHAM      MOSUNNY   77  50  38 S7        30.23S
FLORA          SUNNY     77  54  45 SW12      30.23S
GALESBURG      CLOUDY    66  63  89 SE6       30.17S FOG
JACKSONVILLE   MOSUNNY   80  58  46 SW14      30.17S HX  81
LACON          CLOUDY    67  62  84 SE6       30.18S HAZE
LAWRENCEVILLE  SUNNY     79  56  45 SW15      30.23S HX  80
LITCHFIELD     SUNNY     76  55  48 SW14      30.20S
$$


CITY           SKY/WX    TMP DP  RH WIND       PRES   REMARKS
LINCOLN        SUNNY     75  61  60 S6        30.15F
MACOMB         MOSUNNY   70  65  85 SE5       30.18S
MATTOON        PTSUNNY   76  54  46 SW9       30.20S
MT CARMEL AP   SUNNY     81  46  30 SW14      30.23S HX  80
OLNEY-NOBLE AP SUNNY     77  54  44 SW6       30.23S
PARIS          MOSUNNY   79  55  43 SW12      30.21F
PEORIA         MOSUNNY   72  62  71 SE8       30.17S
PONTIAC        CLOUDY    68  65  90 SE9       30.19R FOG
RANTOUL        MOSUNNY   74  62  66 SW8       30.19S
ROBINSON       SUNNY     78  55  44 W13G20    30.23S
SPRINGFIELD    PTSUNNY   77  58  51 SW13      30.17S
TAYLORVILLE    MOSUNNY   75  55  50 SW10      30.19S
$$

...REGIONAL REPORTS...


CITY           SKY/WX    TMP DP  RH WIND       PRES   REMARKS
CHICAGO O`HARE CLOUDY    50  49  96 E10       30.22R
KANKAKEE       PTSUNNY   69  63  80 SE8       30.19S
MOLINE         CLOUDY    62  59  90 E8        30.17S FOG
MOUNT VERNON   MOSUNNY  N/A N/A N/A SW9       30.23S
PITTSFIELD     SUNNY     77  57  49 SW13      30.17F
QUINCY         SUNNY     72  59  63 SW10      30.16R
ROCKFORD       LGT RAIN  55  51  86 E7        30.24S
$$


CITY           SKY/WX    TMP DP  RH WIND       PRES   REMARKS
BURLINGTON     PTSUNNY   67  65  93 SE8       30.15S
CEDAR RAPIDS   FOG       61  61 100 E9        30.15S VSB 1/4
DES MOINES     CLOUDY    67  61  81 S10       30.11S
KIRKSVILLE     SUNNY     71  65  81 CALM      30.16S
OTTUMWA        MOSUNNY   68  64  87 S8        30.13S
ST LOUIS       MOSUNNY   77  57  50 SW12      30.20R
$$


CITY           SKY/WX    TMP DP  RH WIND       PRES   REMARKS
TERRE HAUTE    SUNNY     75  57  53 SW9       30.23S
EVANSVILLE     SUNNY     77  55  46 SW12      30.26R
INDIANAPOLIS   PTSUNNY   74  54  49 SW14      30.23S
LAFAYETTE      MOSUNNY   70  58  65 SW7       30.20F
MADISON        LGT RAIN  51  46  83 E7        30.26R
MILWAUKEE      LGT RAIN  47  42  83 E12       30.28R
$$





USA.gov is the U.S. government's official web portal to all federal, state and local government web resources and services.